| time (UTC) | temp F | wind direction | speed MPH | gust MPH | rain 1hr in | rain 24hr in | rain mn in | humidity % | barometer mb |
| 20260903231009 | 85 | 220 | 5.0 | 9.0 | 0.00 | 0.00 | 0.00 | 26 | 1016.6 |
| 20260903230506 | 85 | 195 | 10.0 | 14.0 | 0.00 | 0.00 | 0.00 | 26 | 1016.7 |
| 20260903230002 | 85 | 166 | 9.0 | 10.0 | 0.00 | 0.00 | 0.00 | 27 | 1016.7 |
| 20260903225456 | 85 | 175 | 7.0 | 11.0 | 0.00 | 0.00 | 0.00 | 24 | 1016.6 |
| 20260903224953 | 84 | 134 | 5.0 | 13.0 | 0.00 | 0.00 | 0.00 | 25 | 1016.7 |
| 20260903224449 | 85 | 188 | 9.0 | 11.0 | 0.00 | 0.00 | 0.00 | 26 | 1016.6 |
| 20260903223944 | 85 | 193 | 10.0 | 14.0 | 0.00 | 0.00 | 0.00 | 27 | 1016.6 |
| 20260903223444 | 85 | 168 | 5.0 | 9.0 | 0.00 | 0.00 | 0.00 | 25 | 1016.8 |
| 20260903222943 | 84 | 181 | 5.0 | 9.0 | 0.00 | 0.00 | 0.00 | 26 | 1016.8 |
| 20260903222438 | 84 | 213 | 9.0 | 9.0 | 0.00 | 0.00 | 0.00 | 28 | 1016.8 |
| 20260903221937 | 84 | 222 | 8.0 | 9.0 | 0.00 | 0.00 | 0.00 | 30 | 1016.8 |
| 20260903221433 | 84 | 234 | 8.0 | 11.0 | 0.00 | 0.00 | 0.00 | 32 | 1016.7 |
| 20260903220930 | 85 | 216 | 10.0 | 11.0 | 0.00 | 0.00 | 0.00 | 28 | 1016.6 |
| 20260903220430 | 86 | 149 | 9.0 | 11.0 | 0.00 | 0.00 | 0.00 | 25 | 1016.9 |
| 20260903215927 | 85 | 178 | 1.0 | 6.0 | 0.00 | 0.00 | 0.00 | 25 | 1016.9 |
| 20260903215424 | 85 | 191 | 0.0 | 5.0 | 0.00 | 0.00 | 0.00 | 25 | 1017.0 |
| 20260903214922 | 84 | 236 | 6.0 | 8.0 | 0.00 | 0.00 | 0.00 | 31 | 1017.0 |
| 20260903214418 | 85 | 217 | 9.0 | 14.0 | 0.00 | 0.00 | 0.00 | 27 | 1016.8 |
| 20260903213918 | 85 | 186 | 7.0 | 14.0 | 0.00 | 0.00 | 0.00 | 27 | 1016.8 |
| 20260903213413 | 84 | 153 | 9.0 | 10.0 | 0.00 | 0.00 | 0.00 | 27 | 1017.0 |
| 20260903212909 | 84 | 125 | 6.0 | 10.0 | 0.00 | 0.00 | 0.00 | 29 | 1016.9 |
| 20260903212405 | 84 | 222 | 7.0 | 9.0 | 0.00 | 0.00 | 0.00 | 30 | 1017.1 |
| 20260903211905 | 84 | 137 | 14.0 | 17.0 | 0.00 | 0.00 | 0.00 | 28 | 1017.1 |
| 20260903211400 | 84 | 160 | 11.0 | 14.0 | 0.00 | 0.00 | 0.00 | 28 | 1017.3 |
| 20260903210856 | 84 | 209 | 9.0 | 13.0 | 0.00 | 0.00 | 0.00 | 34 | 1017.4 |
| 20260903210351 | 84 | 163 | 7.0 | 8.0 | 0.00 | 0.00 | 0.00 | 28 | 1017.3 |
| 20260903205850 | 84 | 157 | 7.0 | 8.0 | 0.00 | 0.00 | 0.00 | 29 | 1017.1 |
| 20260903205350 | 84 | 154 | 14.0 | 21.0 | 0.00 | 0.00 | 0.00 | 29 | 1017.3 |
| 20260903204845 | 84 | 173 | 4.0 | 16.0 | 0.00 | 0.00 | 0.00 | 34 | 1017.4 |
| 20260903204341 | 83 | 147 | 16.0 | 20.0 | 0.00 | 0.00 | 0.00 | 30 | 1017.4 |
| 20260903203836 | 82 | 124 | 10.0 | 14.0 | 0.00 | 0.00 | 0.00 | 31 | 1017.6 |
| 20260903203332 | 82 | 138 | 11.0 | 14.0 | 0.00 | 0.00 | 0.00 | 30 | 1017.5 |
| 20260903202831 | 82 | 224 | 8.0 | 11.0 | 0.00 | 0.00 | 0.00 | 33 | 1017.6 |
| 20260903202328 | 80 | 189 | 6.0 | 13.0 | 0.00 | 0.00 | 0.00 | 34 | 1017.6 |
| 20260903201827 | 82 | 211 | 9.0 | 13.0 | 0.00 | 0.00 | 0.00 | 33 | 1017.5 |
| 20260903201323 | 83 | 226 | 9.0 | 14.0 | 0.00 | 0.00 | 0.00 | 32 | 1017.6 |
| 20260903200820 | 83 | 174 | 10.0 | 11.0 | 0.00 | 0.00 | 0.00 | 31 | 1017.4 |
| 20260903200317 | 84 | 185 | 6.0 | 11.0 | 0.00 | 0.00 | 0.00 | 30 | 1017.9 |
| 20260903195812 | 83 | 185 | 11.0 | 13.0 | 0.00 | 0.00 | 0.00 | 33 | 1017.4 |
| 20260903195308 | 82 | 181 | 6.0 | 9.0 | 0.00 | 0.00 | 0.00 | 33 | 1017.6 |
| 20260903194803 | 83 | 266 | 8.0 | 13.0 | 0.00 | 0.00 | 0.00 | 35 | 1017.9 |
| 20260903194258 | 83 | 216 | 6.0 | 13.0 | 0.00 | 0.00 | 0.00 | 34 | 1017.3 |
| 20260903193754 | 83 | 219 | 6.0 | 13.0 | 0.00 | 0.00 | 0.00 | 33 | 1017.6 |
| 20260903193249 | 83 | 219 | 4.0 | 7.0 | 0.00 | 0.00 | 0.00 | 34 | 1018.0 |
| 20260903192745 | 82 | 172 | 7.0 | 10.0 | 0.00 | 0.00 | 0.00 | 30 | 1017.9 |
| 20260903192241 | 82 | 218 | 2.0 | 8.0 | 0.00 | 0.00 | 0.00 | 30 | 1018.0 |
| 20260903191737 | 83 | 203 | 3.0 | 7.0 | 0.00 | 0.00 | 0.00 | 28 | 1018.1 |
| 20260903191232 | 82 | 226 | 4.0 | 7.0 | 0.00 | 0.00 | 0.00 | 28 | 1018.0 |
| 20260903190726 | 82 | 265 | 10.0 | 13.0 | 0.00 | 0.00 | 0.00 | 35 | 1018.0 |
| 20260903190220 | 82 | 245 | 10.0 | 11.0 | 0.00 | 0.00 | 0.00 | 31 | 1018.1 |
| 20260903185710 | 82 | 151 | 5.0 | 9.0 | 0.00 | 0.00 | 0.00 | 29 | 1018.0 |
| 20260903185204 | 82 | 185 | 8.0 | 13.0 | 0.00 | 0.00 | 0.00 | 35 | 1018.0 |
| 20260903184701 | 81 | 215 | 3.0 | 7.0 | 0.00 | 0.00 | 0.00 | 31 | 1018.2 |
| 20260903184157 | 81 | 207 | 12.0 | 14.0 | 0.00 | 0.00 | 0.00 | 35 | 1018.2 |
| 20260903183655 | 82 | 223 | 5.0 | 9.0 | 0.00 | 0.00 | 0.00 | 33 | 1018.4 |
| 20260903183150 | 81 | 245 | 11.0 | 14.0 | 0.00 | 0.00 | 0.00 | 34 | 1018.1 |
| 20260903182644 | 81 | 247 | 11.0 | 15.0 | 0.00 | 0.00 | 0.00 | 30 | 1018.3 |
| 20260903182140 | 82 | 216 | 7.0 | 14.0 | 0.00 | 0.00 | 0.00 | 28 | 1018.6 |
| 20260903181637 | 80 | 221 | 3.0 | 7.0 | 0.00 | 0.00 | 0.00 | 34 | 1018.4 |
| 20260903181132 | 80 | 296 | 6.0 | 9.0 | 0.00 | 0.00 | 0.00 | 32 | 1018.2 |
| 20260903180628 | 80 | 310 | 13.0 | 14.0 | 0.00 | 0.00 | 0.00 | 33 | 1018.6 |
| 20260903180122 | 81 | 241 | 8.0 | 16.0 | 0.00 | 0.00 | 0.00 | 38 | 1018.8 |
| 20260903175622 | 80 | 222 | 2.0 | 6.0 | 0.00 | 0.00 | 0.00 | 32 | 1018.8 |
| 20260903175121 | 80 | 227 | 9.0 | 18.0 | 0.00 | 0.00 | 0.00 | 31 | 1018.6 |
| 20260903174616 | 80 | 241 | 9.0 | 16.0 | 0.00 | 0.00 | 0.00 | 40 | 1019.0 |
| 20260903174111 | 80 | 221 | 11.0 | 13.0 | 0.00 | 0.00 | 0.00 | 39 | 1019.1 |
| 20260903173605 | 79 | 244 | 9.0 | 11.0 | 0.00 | 0.00 | 0.00 | 34 | 1018.9 |
| 20260903173102 | 79 | 215 | 10.0 | 14.0 | 0.00 | 0.00 | 0.00 | 42 | 1018.7 |
| 20260903172556 | 78 | 235 | 7.0 | 14.0 | 0.00 | 0.00 | 0.00 | 44 | 1018.7 |
| 20260903172052 | 78 | 209 | 8.0 | 10.0 | 0.00 | 0.00 | 0.00 | 49 | 1018.9 |
| 20260903171551 | 77 | 185 | 13.0 | 17.0 | 0.00 | 0.00 | 0.00 | 44 | 1018.6 |
| 20260903171047 | 78 | 236 | 11.0 | 17.0 | 0.00 | 0.00 | 0.00 | 47 | 1018.9 |
| 20260903170546 | 77 | 200 | 10.0 | 15.0 | 0.00 | 0.00 | 0.00 | 48 | 1019.1 |
| 20260903170042 | 76 | 215 | 10.0 | 11.0 | 0.00 | 0.00 | 0.00 | 48 | 1019.0 |
| 20260903165538 | 76 | 195 | 7.0 | 13.0 | 0.00 | 0.00 | 0.00 | 55 | 1018.9 |
| 20260903165034 | 76 | 200 | 10.0 | 14.0 | 0.00 | 0.00 | 0.00 | 50 | 1018.7 |
| 20260903164529 | 77 | 192 | 14.0 | 16.0 | 0.00 | 0.00 | 0.00 | 49 | 1018.7 |
| 20260903164025 | 76 | 178 | 11.0 | 15.0 | 0.00 | 0.00 | 0.00 | 49 | 1018.9 |
| 20260903163520 | 75 | 211 | 10.0 | 14.0 | 0.00 | 0.00 | 0.00 | 49 | 1018.8 |
| 20260903163016 | 76 | 225 | 14.0 | 15.0 | 0.00 | 0.00 | 0.00 | 51 | 1018.7 |
| 20260903162512 | 76 | 183 | 11.0 | 14.0 | 0.00 | 0.00 | 0.00 | 51 | 1018.7 |
| 20260903162007 | 76 | 213 | 10.0 | 11.0 | 0.00 | 0.00 | 0.00 | 49 | 1018.6 |
| 20260903161502 | 76 | 202 | 8.0 | 13.0 | 0.00 | 0.00 | 0.00 | 50 | 1018.7 |
| 20260903160959 | 76 | 208 | 11.0 | 21.0 | 0.00 | 0.00 | 0.00 | 50 | 1018.7 |
| 20260903160457 | 75 | 237 | 14.0 | 18.0 | 0.00 | 0.00 | 0.00 | 50 | 1018.4 |
| 20260903155956 | 75 | 220 | 14.0 | 23.0 | 0.00 | 0.00 | 0.00 | 50 | 1018.7 |
| 20260903155451 | 75 | 225 | 10.0 | 27.0 | 0.00 | 0.00 | 0.00 | 50 | 1018.6 |
| 20260903154947 | 75 | 217 | 14.0 | 20.0 | 0.00 | 0.00 | 0.00 | 50 | 1018.7 |
| 20260903154442 | 75 | 229 | 9.0 | 13.0 | 0.00 | 0.00 | 0.00 | 53 | 1018.8 |
| 20260903153938 | 75 | 224 | 9.0 | 13.0 | 0.00 | 0.00 | 0.00 | 55 | 1018.7 |
| 20260903153434 | 74 | 208 | 12.0 | 22.0 | 0.00 | 0.00 | 0.00 | 53 | 1018.7 |
| 20260903152930 | 74 | 217 | 11.0 | 18.0 | 0.00 | 0.00 | 0.00 | 53 | 1018.7 |
| 20260903152425 | 73 | 224 | 9.0 | 13.0 | 0.00 | 0.00 | 0.00 | 57 | 1018.7 |
| 20260903151921 | 73 | 214 | 7.0 | 10.0 | 0.00 | 0.00 | 0.00 | 58 | 1018.7 |
| 20260903151409 | 73 | 207 | 7.0 | 13.0 | 0.00 | 0.00 | 0.00 | 57 | 1018.7 |
| 20260903150904 | 72 | 221 | 7.0 | 11.0 | 0.00 | 0.00 | 0.00 | 57 | 1018.9 |
| 20260903150359 | 71 | 209 | 5.0 | 10.0 | 0.00 | 0.00 | 0.00 | 61 | 1018.8 |
| 20260903145853 | 71 | 227 | 10.0 | 14.0 | 0.00 | 0.00 | 0.00 | 64 | 1018.8 |
| 20260903145348 | 71 | 228 | 9.0 | 11.0 | 0.00 | 0.00 | 0.00 | 58 | 1018.7 |
| 20260903144847 | 71 | 220 | 6.0 | 9.0 | 0.00 | 0.00 | 0.00 | 58 | 1018.7 |
| 20260903144343 | 70 | 218 | 3.0 | 8.0 | 0.00 | 0.00 | 0.00 | 62 | 1018.7 |
| 20260903143838 | 70 | 211 | 4.0 | 6.0 | 0.00 | 0.00 | 0.00 | 60 | 1018.4 |
| 20260903143336 | 69 | 228 | 3.0 | 6.0 | 0.00 | 0.00 | 0.00 | 58 | 1018.6 |
| 20260903142831 | 69 | 198 | 3.0 | 5.0 | 0.00 | 0.00 | 0.00 | 64 | 1018.4 |
| 20260903142327 | 69 | 235 | 5.0 | 9.0 | 0.00 | 0.00 | 0.00 | 59 | 1018.6 |
| 20260903141823 | 68 | 237 | 3.0 | 6.0 | 0.00 | 0.00 | 0.00 | 61 | 1018.3 |
| 20260903141318 | 67 | 200 | 3.0 | 6.0 | 0.00 | 0.00 | 0.00 | 67 | 1018.6 |
| 20260903140818 | 67 | 220 | 6.0 | 11.0 | 0.00 | 0.00 | 0.00 | 62 | 1018.4 |
| 20260903140313 | 65 | 221 | 6.0 | 7.0 | 0.00 | 0.00 | 0.00 | 66 | 1018.4 |
| 20260903135809 | 65 | 299 | 7.0 | 9.0 | 0.00 | 0.00 | 0.00 | 70 | 1018.4 |
| 20260903135306 | 64 | 174 | 0.0 | 0.0 | 0.00 | 0.00 | 0.00 | 69 | 1018.3 |
| 20260903134803 | 61 | 181 | 0.0 | 1.0 | 0.00 | 0.00 | 0.00 | 72 | 1018.2 |
| 20260903134259 | 60 | 214 | 4.0 | 6.0 | 0.00 | 0.00 | 0.00 | 74 | 1018.0 |
| 20260903133756 | 59 | 201 | 4.0 | 9.0 | 0.00 | 0.00 | 0.00 | 75 | 1018.2 |
| 20260903133252 | 59 | 200 | 4.0 | 7.0 | 0.00 | 0.00 | 0.00 | 73 | 1018.1 |
| 20260903132746 | 57 | 209 | 5.0 | 10.0 | 0.00 | 0.00 | 0.00 | 75 | 1018.0 |
| 20260903132242 | 57 | 216 | 4.0 | 8.0 | 0.00 | 0.00 | 0.00 | 75 | 1018.0 |
| 20260903131737 | 57 | 243 | 4.0 | 13.0 | 0.00 | 0.00 | 0.00 | 75 | 1017.9 |
| 20260903131236 | 57 | 188 | 0.0 | 0.0 | 0.00 | 0.00 | 0.00 | 75 | 1017.7 |
| 20260903130731 | 56 | 198 | 0.0 | 1.0 | 0.00 | 0.00 | 0.00 | 75 | 1017.6 |
| 20260903130226 | 55 | 199 | 1.0 | 3.0 | 0.00 | 0.00 | 0.00 | 76 | 1017.7 |
| 20260903125724 | 54 | 198 | 0.0 | 1.0 | 0.00 | 0.00 | 0.00 | 77 | 1017.7 |
| 20260903125220 | 53 | 159 | 1.0 | 3.0 | 0.00 | 0.00 | 0.00 | 78 | 1017.9 |
| 20260903124719 | 54 | 194 | 0.0 | 0.0 | 0.00 | 0.00 | 0.00 | 76 | 1017.9 |
| 20260903124214 | 53 | 185 | 0.0 | 0.0 | 0.00 | 0.00 | 0.00 | 77 | 1017.7 |
| 20260903123713 | 53 | 206 | 1.0 | 5.0 | 0.00 | 0.00 | 0.00 | 77 | 1017.6 |
| 20260903123212 | 53 | 280 | 5.0 | 6.0 | 0.00 | 0.00 | 0.00 | 77 | 1017.6 |
| 20260903122711 | 53 | 197 | 0.0 | 0.0 | 0.00 | 0.00 | 0.00 | 77 | 1017.4 |
| 20260903122206 | 53 | 257 | 4.0 | 5.0 | 0.00 | 0.00 | 0.00 | 79 | 1017.4 |
| 20260903121704 | 53 | 256 | 3.0 | 3.0 | 0.00 | 0.00 | 0.00 | 79 | 1017.5 |
| 20260903121201 | 54 | 315 | 5.0 | 6.0 | 0.00 | 0.00 | 0.00 | 78 | 1017.5 |
| 20260903120701 | 54 | 281 | 4.0 | 5.0 | 0.00 | 0.00 | 0.00 | 77 | 1017.3 |
| 20260903120154 | 55 | 223 | 4.0 | 6.0 | 0.00 | 0.00 | 0.00 | 76 | 1017.3 |
| 20260903115653 | 56 | 213 | 3.0 | 5.0 | 0.00 | 0.00 | 0.00 | 74 | 1017.0 |
| 20260903115148 | 55 | 221 | 3.0 | 6.0 | 0.00 | 0.00 | 0.00 | 75 | 1017.1 |
| 20260903114643 | 55 | 262 | 5.0 | 6.0 | 0.00 | 0.00 | 0.00 | 76 | 1017.1 |
| 20260903114138 | 54 | 238 | 4.0 | 7.0 | 0.00 | 0.00 | 0.00 | 76 | 1017.1 |
| 20260903113633 | 54 | 242 | 4.0 | 5.0 | 0.00 | 0.00 | 0.00 | 77 | 1017.3 |
| 20260903113124 | 54 | 277 | 3.0 | 5.0 | 0.00 | 0.00 | 0.00 | 78 | 1017.4 |
| 20260903112620 | 54 | 267 | 3.0 | 3.0 | 0.00 | 0.00 | 0.00 | 78 | 1017.4 |
| 20260903112120 | 54 | 218 | 3.0 | 5.0 | 0.00 | 0.00 | 0.00 | 78 | 1017.3 |
| 20260903111619 | 54 | 218 | 2.0 | 3.0 | 0.00 | 0.00 | 0.00 | 78 | 1017.1 |
| 20260903111115 | 54 | 269 | 3.0 | 3.0 | 0.00 | 0.00 | 0.00 | 79 | 1017.5 |
| 20260903110611 | 54 | 233 | 1.0 | 2.0 | 0.00 | 0.00 | 0.00 | 80 | 1017.3 |
| 20260903110106 | 55 | 293 | 3.0 | 3.0 | 0.00 | 0.00 | 0.00 | 79 | 1017.3 |
| 20260903105601 | 55 | 298 | 3.0 | 6.0 | 0.00 | 0.00 | 0.00 | 78 | 1017.3 |
| 20260903105056 | 55 | 274 | 3.0 | 7.0 | 0.00 | 0.00 | 0.00 | 79 | 1017.3 |
| 20260903104555 | 56 | 306 | 3.0 | 5.0 | 0.00 | 0.00 | 0.00 | 76 | 1016.9 |
| 20260903104051 | 56 | 219 | 3.0 | 3.0 | 0.00 | 0.00 | 0.00 | 76 | 1017.3 |
| 20260903103547 | 56 | 227 | 3.0 | 5.0 | 0.00 | 0.00 | 0.00 | 76 | 1017.1 |
| 20260903103043 | 56 | 232 | 4.0 | 5.0 | 0.00 | 0.00 | 0.00 | 76 | 1017.0 |
| 20260903102538 | 57 | 219 | 4.0 | 5.0 | 0.00 | 0.00 | 0.00 | 75 | 1017.1 |
| 20260903102037 | 58 | 227 | 5.0 | 6.0 | 0.00 | 0.00 | 0.00 | 74 | 1017.3 |
| 20260903101532 | 58 | 240 | 5.0 | 6.0 | 0.00 | 0.00 | 0.00 | 74 | 1016.9 |
| 20260903101028 | 58 | 214 | 4.0 | 6.0 | 0.00 | 0.00 | 0.00 | 73 | 1017.3 |
| 20260903100522 | 59 | 209 | 3.0 | 6.0 | 0.00 | 0.00 | 0.00 | 72 | 1017.4 |
| 20260903100021 | 59 | 219 | 3.0 | 6.0 | 0.00 | 0.00 | 0.00 | 72 | 1017.1 |
| 20260903095519 | 59 | 241 | 4.0 | 6.0 | 0.00 | 0.00 | 0.00 | 72 | 1017.1 |
| 20260903095014 | 60 | 240 | 6.0 | 7.0 | 0.00 | 0.00 | 0.00 | 72 | 1017.4 |
| 20260903094514 | 60 | 245 | 4.0 | 5.0 | 0.00 | 0.00 | 0.00 | 70 | 1017.6 |
| 20260903094010 | 59 | 219 | 3.0 | 3.0 | 0.00 | 0.00 | 0.00 | 71 | 1017.3 |
| 20260903093510 | 58 | 213 | 3.0 | 5.0 | 0.00 | 0.00 | 0.00 | 73 | 1017.3 |
| 20260903093006 | 57 | 228 | 5.0 | 6.0 | 0.00 | 0.00 | 0.00 | 76 | 1017.6 |
| 20260903092505 | 56 | 195 | 0.0 | 1.0 | 0.00 | 0.00 | 0.00 | 81 | 1017.6 |
| 20260903092005 | 56 | 296 | 3.0 | 7.0 | 0.00 | 0.00 | 0.00 | 81 | 1017.6 |
| 20260903091503 | 57 | 185 | 3.0 | 6.0 | 0.00 | 0.00 | 0.00 | 80 | 1017.6 |
| 20260903090958 | 57 | 177 | 3.0 | 5.0 | 0.00 | 0.00 | 0.00 | 79 | 1017.4 |
| 20260903090454 | 58 | 190 | 2.0 | 3.0 | 0.00 | 0.00 | 0.00 | 77 | 1017.5 |
| 20260903085952 | 58 | 214 | 0.0 | 2.0 | 0.00 | 0.00 | 0.00 | 76 | 1017.5 |
| 20260903085450 | 57 | 206 | 1.0 | 1.0 | 0.00 | 0.00 | 0.00 | 76 | 1017.5 |
| 20260903084946 | 58 | 201 | 2.0 | 2.0 | 0.00 | 0.00 | 0.00 | 76 | 1017.4 |
| 20260903084444 | 57 | 213 | 3.0 | 5.0 | 0.00 | 0.00 | 0.00 | 76 | 1017.5 |
| 20260903083939 | 59 | 206 | 2.0 | 3.0 | 0.00 | 0.00 | 0.00 | 75 | 1017.3 |
| 20260903083435 | 60 | 227 | 3.0 | 5.0 | 0.00 | 0.00 | 0.00 | 73 | 1017.4 |
| 20260903082934 | 61 | 250 | 4.0 | 9.0 | 0.00 | 0.00 | 0.00 | 69 | 1017.9 |
| 20260903082429 | 60 | 240 | 7.0 | 11.0 | 0.00 | 0.00 | 0.00 | 69 | 1017.6 |
| 20260903081924 | 59 | 289 | 12.0 | 16.0 | 0.00 | 0.00 | 0.00 | 73 | 1017.7 |
| 20260903081419 | 58 | 265 | 7.0 | 9.0 | 0.00 | 0.00 | 0.00 | 75 | 1017.4 |
| 20260903080916 | 58 | 247 | 3.0 | 3.0 | 0.00 | 0.00 | 0.00 | 77 | 1017.4 |
| 20260903080412 | 57 | 229 | 3.0 | 3.0 | 0.00 | 0.00 | 0.00 | 78 | 1017.5 |
| 20260903075907 | 57 | 253 | 3.0 | 5.0 | 0.00 | 0.00 | 0.00 | 81 | 1017.3 |
| 20260903075403 | 57 | 271 | 3.0 | 5.0 | 0.00 | 0.00 | 0.00 | 81 | 1017.4 |
| 20260903074857 | 59 | 292 | 4.0 | 5.0 | 0.00 | 0.00 | 0.00 | 78 | 1017.1 |
| 20260903074356 | 61 | 217 | 2.0 | 3.0 | 0.00 | 0.00 | 0.00 | 73 | 1017.3 |
| 20260903073852 | 60 | 248 | 3.0 | 5.0 | 0.00 | 0.00 | 0.00 | 71 | 1017.4 |
| 20260903073347 | 60 | 291 | 5.0 | 6.0 | 0.00 | 0.00 | 0.00 | 75 | 1017.3 |
| 20260903072843 | 62 | 201 | 2.0 | 2.0 | 0.00 | 0.00 | 0.00 | 72 | 1017.3 |
| 20260903072339 | 64 | 217 | 3.0 | 3.0 | 0.00 | 0.00 | 0.00 | 69 | 1017.4 |
| 20260903071836 | 63 | 203 | 2.0 | 2.0 | 0.00 | 0.00 | 0.00 | 68 | 1017.5 |
| 20260903071331 | 62 | 181 | 1.0 | 1.0 | 0.00 | 0.00 | 0.00 | 70 | 1017.6 |
| 20260903070826 | 61 | 177 | 0.0 | 0.0 | 0.00 | 0.00 | 0.00 | 74 | 1017.6 |
| 20260903070321 | 60 | 177 | 0.0 | 0.0 | 0.00 | 0.00 | 0.00 | 77 | 1017.9 |
| 20260903065816 | 60 | 164 | 0.0 | 1.0 | 0.00 | 0.00 | 0.00 | 78 | 1017.7 |
| 20260903065315 | 61 | 186 | 0.0 | 0.0 | 0.00 | 0.00 | 0.00 | 77 | 1018.0 |
| 20260903064815 | 61 | 278 | 4.0 | 5.0 | 0.00 | 0.00 | 0.00 | 76 | 1018.0 |
| 20260903064310 | 61 | 253 | 3.0 | 5.0 | 0.00 | 0.00 | 0.00 | 76 | 1017.9 |
| 20260903063806 | 61 | 262 | 4.0 | 6.0 | 0.00 | 0.00 | 0.00 | 77 | 1018.0 |
| 20260903063301 | 61 | 266 | 5.0 | 7.0 | 0.00 | 0.00 | 0.00 | 79 | 1017.9 |
| 20260903062757 | 61 | 266 | 5.0 | 5.0 | 0.00 | 0.00 | 0.00 | 75 | 1018.0 |
| 20260903062256 | 61 | 259 | 3.0 | 5.0 | 0.00 | 0.00 | 0.00 | 74 | 1018.0 |
| 20260903061753 | 61 | 221 | 0.0 | 0.0 | 0.00 | 0.00 | 0.00 | 77 | 1018.1 |
| 20260903061252 | 62 | 167 | 0.0 | 0.0 | 0.00 | 0.00 | 0.00 | 77 | 1017.9 |
| 20260903060748 | 62 | 158 | 0.0 | 0.0 | 0.00 | 0.00 | 0.00 | 74 | 1018.0 |
| 20260903060247 | 61 | 153 | 1.0 | 2.0 | 0.00 | 0.00 | 0.00 | 75 | 1018.0 |
| 20260903055745 | 61 | 188 | 0.0 | 1.0 | 0.00 | 0.04 | 0.04 | 74 | 1018.0 |
| 20260903055243 | 61 | 181 | 1.0 | 2.0 | 0.00 | 0.04 | 0.04 | 76 | 1018.0 |
| 20260903054738 | 61 | 193 | 0.0 | 1.0 | 0.00 | 0.04 | 0.04 | 75 | 1018.0 |
| 20260903054233 | 62 | 204 | 1.0 | 2.0 | 0.00 | 0.04 | 0.04 | 76 | 1018.2 |
| 20260903053731 | 60 | 222 | 5.0 | 6.0 | 0.00 | 0.04 | 0.04 | 74 | 1018.1 |
| 20260903053230 | 60 | 211 | 5.0 | 5.0 | 0.00 | 0.04 | 0.04 | 81 | 1018.3 |
| 20260903052726 | 59 | 214 | 3.0 | 5.0 | 0.00 | 0.04 | 0.04 | 80 | 1018.4 |
| 20260903052221 | 59 | 223 | 4.0 | 6.0 | 0.00 | 0.04 | 0.04 | 81 | 1018.7 |
| 20260903051716 | 59 | 214 | 3.0 | 5.0 | 0.00 | 0.04 | 0.04 | 79 | 1018.6 |
| 20260903051212 | 60 | 218 | 2.0 | 2.0 | 0.00 | 0.04 | 0.04 | 78 | 1018.4 |
| 20260903050708 | 60 | 189 | 4.0 | 5.0 | 0.00 | 0.04 | 0.04 | 77 | 1018.2 |
| 20260903050206 | 61 | 189 | 3.0 | 5.0 | 0.00 | 0.04 | 0.04 | 76 | 1018.3 |
| 20260903045655 | 61 | 180 | 6.0 | 8.0 | 0.00 | 0.04 | 0.04 | 76 | 1018.6 |
| 20260903045152 | 63 | 124 | 10.0 | 11.0 | 0.00 | 0.04 | 0.04 | 74 | 1018.1 |
| 20260903044648 | 64 | 229 | 3.0 | 3.0 | 0.00 | 0.04 | 0.04 | 69 | 1017.9 |
| 20260903044143 | 64 | 196 | 5.0 | 8.0 | 0.00 | 0.04 | 0.04 | 68 | 1018.0 |
| 20260903043640 | 60 | 188 | 4.0 | 10.0 | 0.00 | 0.04 | 0.04 | 74 | 1018.0 |
| 20260903043139 | 61 | 269 | 5.0 | 8.0 | 0.00 | 0.04 | 0.04 | 79 | 1018.1 |
| 20260903042638 | 60 | 217 | 3.0 | 3.0 | 0.00 | 0.04 | 0.04 | 79 | 1018.1 |
| 20260903042133 | 59 | 219 | 1.0 | 2.0 | 0.00 | 0.04 | 0.04 | 83 | 1018.1 |
| 20260903041630 | 59 | 204 | 2.0 | 2.0 | 0.00 | 0.04 | 0.04 | 83 | 1018.0 |
| 20260903041126 | 60 | 214 | 3.0 | 5.0 | 0.00 | 0.04 | 0.04 | 81 | 1017.9 |
| 20260903040624 | 61 | 208 | 2.0 | 3.0 | 0.00 | 0.04 | 0.04 | 79 | 1018.2 |
| 20260903040121 | 61 | 155 | 4.0 | 5.0 | 0.00 | 0.04 | 0.04 | 77 | 1017.9 |
| 20260903035616 | 60 | 155 | 4.0 | 6.0 | 0.00 | 0.04 | 0.04 | 81 | 1017.9 |
| 20260903035112 | 60 | 180 | 2.0 | 2.0 | 0.00 | 0.04 | 0.04 | 80 | 1018.1 |
| 20260903034606 | 60 | 194 | 1.0 | 1.0 | 0.00 | 0.04 | 0.04 | 81 | 1018.2 |
| 20260903034101 | 59 | 178 | 2.0 | 3.0 | 0.00 | 0.04 | 0.04 | 83 | 1018.4 |
| 20260903033557 | 60 | 201 | 2.0 | 3.0 | 0.00 | 0.04 | 0.04 | 80 | 1018.6 |
| 20260903033052 | 61 | 206 | 1.0 | 3.0 | 0.00 | 0.04 | 0.04 | 78 | 1018.2 |
| 20260903032547 | 61 | 276 | 3.0 | 3.0 | 0.00 | 0.04 | 0.04 | 78 | 1017.7 |
| 20260903032042 | 62 | 281 | 3.0 | 3.0 | 0.00 | 0.04 | 0.04 | 76 | 1017.9 |
| 20260903031542 | 63 | 254 | 0.0 | 0.0 | 0.00 | 0.04 | 0.04 | 73 | 1018.0 |
| 20260903031037 | 62 | 206 | 0.0 | 0.0 | 0.00 | 0.04 | 0.04 | 71 | 1018.1 |
| 20260903030533 | 61 | 165 | 0.0 | 0.0 | 0.00 | 0.04 | 0.04 | 74 | 1018.3 |
| 20260903030029 | 61 | 199 | 0.0 | 0.0 | 0.00 | 0.04 | 0.04 | 75 | 1018.3 |
| 20260903025524 | 62 | 204 | 0.0 | 0.0 | 0.00 | 0.04 | 0.04 | 78 | 1018.3 |
| 20260903025020 | 62 | 200 | 0.0 | 2.0 | 0.00 | 0.04 | 0.04 | 73 | 1018.4 |
| 20260903024519 | 63 | 201 | 0.0 | 0.0 | 0.00 | 0.04 | 0.04 | 76 | 1018.6 |
| 20260903024013 | 64 | 178 | 0.0 | 0.0 | 0.00 | 0.04 | 0.04 | 73 | 1018.2 |
| 20260903023509 | 64 | 212 | 0.0 | 0.0 | 0.00 | 0.04 | 0.04 | 70 | 1018.4 |
| 20260903023004 | 64 | 183 | 0.0 | 0.0 | 0.00 | 0.04 | 0.04 | 71 | 1018.4 |
| 20260903022504 | 65 | 206 | 0.0 | 0.0 | 0.00 | 0.04 | 0.04 | 71 | 1018.3 |
| 20260903022002 | 64 | 161 | 0.0 | 0.0 | 0.00 | 0.04 | 0.04 | 67 | 1018.3 |
| 20260903021457 | 65 | 186 | 0.0 | 0.0 | 0.00 | 0.04 | 0.04 | 69 | 1018.2 |
| 20260903020952 | 64 | 168 | 0.0 | 0.0 | 0.00 | 0.04 | 0.04 | 67 | 1018.1 |
| 20260903020448 | 64 | 163 | 0.0 | 0.0 | 0.00 | 0.04 | 0.04 | 72 | 1018.1 |
| 20260903015942 | 63 | 169 | 0.0 | 0.0 | 0.00 | 0.04 | 0.04 | 74 | 1018.1 |
| 20260903015438 | 63 | 188 | 0.0 | 0.0 | 0.00 | 0.04 | 0.04 | 77 | 1018.2 |
| 20260903014933 | 63 | 125 | 0.0 | 0.0 | 0.00 | 0.04 | 0.04 | 76 | 1017.9 |
| 20260903014432 | 65 | 184 | 0.0 | 2.0 | 0.00 | 0.04 | 0.04 | 72 | 1017.9 |
| 20260903013927 | 67 | 73 | 3.0 | 5.0 | 0.00 | 0.04 | 0.04 | 64 | 1017.9 |
| 20260903013427 | 67 | 134 | 0.0 | 2.0 | 0.00 | 0.04 | 0.04 | 59 | 1017.6 |
| 20260903012926 | 66 | 101 | 5.0 | 6.0 | 0.00 | 0.04 | 0.04 | 62 | 1018.0 |
| 20260903012420 | 66 | 87 | 2.0 | 5.0 | 0.00 | 0.04 | 0.04 | 65 | 1018.0 |
| 20260903011919 | 67 | 109 | 4.0 | 5.0 | 0.00 | 0.04 | 0.04 | 60 | 1017.9 |
| 20260903011414 | 67 | 114 | 3.0 | 5.0 | 0.00 | 0.04 | 0.04 | 61 | 1018.2 |
| 20260903010909 | 67 | 95 | 0.0 | 2.0 | 0.00 | 0.04 | 0.04 | 60 | 1018.1 |
| 20260903010405 | 67 | 196 | 0.0 | 0.0 | 0.00 | 0.04 | 0.04 | 66 | 1018.6 |
| 20260903005902 | 67 | 221 | 0.0 | 3.0 | 0.00 | 0.04 | 0.04 | 58 | 1018.6 |
| 20260903005358 | 66 | 203 | 2.0 | 3.0 | 0.05 | 0.04 | 0.04 | 60 | 1018.9 |
| 20260903004854 | 65 | 278 | 5.0 | 7.0 | 0.05 | 0.04 | 0.04 | 61 | 1019.1 |
| 20260903004349 | 64 | 290 | 7.0 | 11.0 | 0.00 | 0.03 | 0.03 | 68 | 1019.7 |
| 20260903003844 | 64 | 228 | 6.0 | 10.0 | 0.00 | 0.03 | 0.03 | 71 | 1019.7 |
| 20260903003344 | 64 | 213 | 11.0 | 15.0 | 0.00 | 0.03 | 0.03 | 70 | 1019.6 |
| 20260903002838 | 63 | 214 | 11.0 | 13.0 | 0.07 | 0.03 | 0.03 | 71 | 1019.1 |
| 20260903002333 | 63 | 233 | 14.0 | 18.0 | 0.05 | 0.02 | 0.02 | 74 | 1019.7 |
| 20260903001828 | 64 | 235 | 14.0 | 21.0 | 0.12 | 0.02 | 0.02 | 74 | 1019.6 |
| 20260903001324 | 67 | 236 | 9.0 | 11.0 | 0.00 | 0.00 | 0.00 | 67 | 1019.6 |
| 20260903000823 | 67 | 227 | 7.0 | 11.0 | 0.00 | 0.00 | 0.00 | 64 | 1019.1 |
| 20260903000318 | 67 | 260 | 8.0 | 11.0 | 0.00 | 0.00 | 0.00 | 63 | 1018.6 |
| 20260902235816 | 67 | 262 | 8.0 | 9.0 | 0.00 | 0.00 | 0.00 | 65 | 1018.8 |
| 20260902235312 | 67 | 264 | 10.0 | 18.0 | 0.00 | 0.00 | 0.00 | 63 | 1018.2 |
| 20260902234812 | 68 | 312 | 16.0 | 22.0 | 0.00 | 0.00 | 0.00 | 63 | 1018.0 |
| 20260902234311 | 71 | 284 | 16.0 | 20.0 | 0.00 | 0.00 | 0.00 | 55 | 1018.7 |
| 20260902233810 | 73 | 282 | 13.0 | 20.0 | 0.00 | 0.00 | 0.00 | 46 | 1018.7 |
| 20260902233305 | 72 | 271 | 17.0 | 21.0 | 0.00 | 0.00 | 0.00 | 45 | 1018.4 |
| 20260902232804 | 72 | 312 | 15.0 | 17.0 | 0.00 | 0.00 | 0.00 | 46 | 1018.2 |
| 20260902232306 | 73 | 299 | 23.0 | 27.0 | 0.00 | 0.00 | 0.00 | 46 | 1017.9 |
| 20260902231803 | 73 | 286 | 21.0 | 27.0 | 0.00 | 0.00 | 0.00 | 43 | 1017.9 |
| 20260902231258 | 75 | 298 | 23.0 | 32.0 | 0.00 | 0.00 | 0.00 | 42 | 1017.6 |